Wind_Speed
13 12 13 12 13 12 12 11 11 10 11 11 9 8 6 5 7 10 6 5 5 7 7 6 5 6 3 3 3 3 4 2 4 6 4 5 3 1 1 5 1 3 6 3 22
14 14 13 13 13 13 13 12 12 10 9 9 7 5 6 8 8 5 4 8 7 7 8 8 4 5 3 2 2 4 4 7 3 4 4 5 1 7 3 2 2 1 1 7 29
14 13 14 13 13 12 12 12 11 10 9 8 7 6 4 9 2 4 8 7 8 8 6 7 8 3 3 1 2 3 5 5 2 2 3 5 0 2 7 3 7 8 5 9 16
16 15 13 14 14 13 13 11 10 9 8 6 5 4 5 6 5 3 8 8 7 9 8 6 4 4 4 5 2 4 1 4 4 0 4 5 3 2 5 7 2 9 8 11 11
16 15 14 12 13 12 12 11 10 8 7 5 4 4 6 2 2 4 7 8 7 8 7 4 4 5 6 5 4 3 3 3 2 2 3 3 3 4 6 8 4 6 10 12 13
16 15 14 13 13 12 10 9 8 8 6 6 4 6 2 5 3 5 6 8 7 6 6 4 6 5 5 3 4 4 4 4 2 2 2 3 2 1 2 4 3 4 10 10 11
15 15 15 13 13 12 12 10 8 7 5 4 3 6 2 2 5 5 7 6 7 5 5 3 4 3 5 5 2 4 4 3 3 3 2 4 4 7 5 2 3 7 7 8 13
15 15 13 13 13 12 10 8 6 5 4 3 2 4 3 3 5 6 7 7 6 6 6 5 4 6 4 4 6 4 5 3 2 4 1 4 7 4 4 4 5 6 8 8 11
15 14 13 11 11 11 9 7 5 4 3 3 2 3 1 3 3 6 7 8 7 7 7 6 5 4 4 6 4 5 3 3 5 5 2 2 5 4 3 5 7 6 8 9 10
15 14 13 12 11 9 8 6 5 5 4 4 2 2 2 5 4 6 6 9 4 5 4 6 5 4 3 4 5 6 3 2 3 3 2 2 8 8 8 4 9 8 9 9 10
13 13 13 11 9 8 8 9 4 3 1 4 2 2 4 5 4 3 6 5 4 7 4 2 4 6 10 6 3 6 4 2 2 1 2 5 6 11 10 6 10 10 10 11 11
14 13 12 11 8 8 11 2 4 4 3 1 2 3 3 5 4 1 7 5 4 4 4 5 4 6 6 4 4 3 3 2 3 1 2 4 9 9 9 11 7 9 10 10 8
13 13 11 12 9 7 7 4 5 5 5 3 2 3 4 6 3 8 5 4 4 5 4 6 2 8 6 4 5 3 5 4 4 1 4 5 8 6 5 4 6 6 6 7 10
16 14 12 12 6 9 3 8 5 4 4 4 4 4 3 4 2 3 2 4 2 7 8 3 1 6 4 4 5 4 5 4 4 3 2 2 5 6 5 10 7 10 7 7 8
12 13 14 16 4 7 5 8 6 1 3 3 3 2 3 5 8 1 1 4 9 7 6 5 7 5 3 5 6 5 4 3 3 4 3 3 2 7 5 6 5 8 8 8 8
2 12 9 11 5 6 9 10 4 5 7 4 3 6 6 2 2 3 2 4 3 5 4 3 1 4 6 3 2 8 6 7 4 3 1 5 4 5 3 1 4 5 7 8 9
5 4 6 6 5 8 11 4 4 5 2 6 5 5 3 5 4 4 6 6 6 5 4 2 1 0 3 6 4 4 6 2 3 3 5 1 3 8 2 3 2 4 7 8 8
8 5 1 5 7 7 6 3 4 5 6 3 5 6 7 5 1 3 6 7 3 5 4 7 3 7 5 6 8 6 7 5 7 4 3 1 4 5 4 6 5 5 6 8 9
3 3 7 3 6 7 4 9 9 5 5 8 5 5 4 4 5 4 6 6 8 10 7 6 4 1 2 3 5 5 4 4 6 3 3 4 5 5 5 8 6 7 8 9 9
2 3 4 5 8 6 5 6 3 2 3 1 7 6 7 8 6 7 9 5 5 10 2 7 4 1 2 3 3 3 7 4 3 2 3 3 3 5 7 5 6 9 8 7 7
2 1 1 3 10 2 3 6 3 6 1 4 5 5 5 8 7 6 7 1 2 6 5 5 4 1 4 6 8 3 3 3 4 5 5 2 5 4 11 8 8 5 5 6 7
2 1 3 6 3 2 3 7 7 5 4 2 3 3 5 7 5 6 9 1 4 4 9 6 5 4 6 2 2 2 6 6 5 5 2 3 5 7 9 8 6 3 3 5 5
2 1 3 1 3 3 3 5 3 5 3 3 2 2 1 4 4 3 5 3 6 2 9 7 3 3 2 2 2 4 2 4 4 4 7 6 4 4 4 5 3 6 6 5 6
2 1 3 2 1 3 3 5 6 2 4 3 2 4 4 2 4 6 3 3 4 3 7 4 4 4 10 3 5 5 4 4 5 3 5 6 4 7 8 8 8 7 6 6 6
1 2 1 2 4 2 4 9 7 5 2 7 4 4 4 3 2 4 2 4 4 5 5 4 4 3 3 2 1 4 7 6 6 4 7 3 4 3 6 7 3 3 4 6 7
2 1 2 1 2 7 3 7 9 5 10 6 5 15 12 7 6 5 7 5 4 2 3 0 3 3 2 3 3 3 6 5 3 2 5 3 13 8 1 7 6 6 7 8 7
2 2 2 2 1 5 5 4 5 6 3 3 7 6 8 8 6 3 3 5 7 8 5 6 6 4 4 1 4 6 8 8 5 5 6 7 4 4 3 5 3 5 4 3 4
Wind_Direction
198 197 187 186 180 182 187 195 194 199 207 203 202 208 213 228 185 182 199 187 174 172 167 160 138 122 105 89 65 126 66 158 197 150 227 160 138 166 17 120 149 195 157 224 168
198 195 187 186 182 187 181 192 194 197 198 198 208 206 211 206 183 205 200 175 163 170 170 162 138 123 50 84 32 87 114 205 204 184 185 165 151 162 150 134 254 290 10 149 161
198 195 187 183 182 189 186 189 194 193 192 202 199 206 207 170 184 210 185 174 180 170 172 145 134 103 93 76 135 148 172 197 179 129 157 139 207 190 133 232 214 204 171 157 163
194 195 193 185 178 184 184 188 199 194 192 197 204 202 179 164 168 172 174 177 174 174 159 136 98 90 115 153 153 111 144 176 175 88 111 158 128 235 204 217 277 208 172 166 177
196 197 192 190 187 186 187 189 191 188 189 189 202 178 157 175 222 147 181 170 169 176 171 146 127 137 148 157 111 119 174 92 98 109 102 117 198 232 256 260 26 125 157 183 194
197 195 189 190 186 191 193 191 195 196 181 178 187 181 156 185 146 141 167 155 178 165 151 159 176 167 108 137 137 162 132 133 176 183 135 154 264 98 310 301 206 156 192 196 204
200 192 191 189 190 188 189 191 193 187 200 180 170 171 133 179 160 150 150 144 166 162 134 135 135 89 128 113 149 107 104 23 203 184 181 139 268 239 257 315 230 230 232 226 226
198 193 194 196 190 192 192 183 194 192 192 186 171 158 169 158 157 160 142 135 151 123 131 126 116 100 76 110 27 71 50 113 279 149 175 116 263 264 346 149 262 238 246 240 242
202 191 197 198 196 193 181 188 187 185 176 169 145 138 217 142 167 159 162 146 128 104 96 108 76 86 54 93 39 14 181 188 307 187 131 124 254 257 195 9 308 258 240 239 248
204 195 197 196 192 188 173 167 152 137 148 124 109 108 156 199 153 167 143 137 113 102 68 52 54 80 44 99 197 189 193 231 242 219 130 156 263 287 276 277 270 281 268 250 247
196 191 193 189 187 177 159 135 69 23 192 184 206 119 115 117 122 153 135 112 85 57 129 26 100 185 197 169 130 135 131 152 256 133 162 247 267 275 291 293 279 269 258 262 252
189 193 193 185 176 184 174 181 175 146 169 235 124 75 132 157 100 275 162 119 119 140 119 53 221 204 123 161 126 102 101 250 280 38 143 348 277 265 269 265 240 258 270 267 283
186 191 193 180 178 198 189 185 153 153 107 212 183 160 180 160 140 196 136 127 124 131 157 155 211 139 138 147 144 172 160 198 209 42 54 343 305 331 299 269 280 264 277 285 272
180 185 186 165 179 170 171 175 153 146 85 223 201 235 139 158 84 309 203 132 109 162 150 197 124 138 143 169 130 162 198 152 148 88 210 20 284 310 313 298 328 330 336 337 347
162 169 172 173 168 163 156 167 150 120 161 180 157 149 123 162 132 295 260 56 157 161 123 228 164 136 138 191 160 197 113 122 91 97 75 319 87 271 339 321 356 25 14 1 7
239 163 156 162 165 148 150 146 113 58 234 166 134 168 119 84 77 121 152 52 133 97 46 124 50 150 175 86 112 147 82 50 55 87 333 240 144 289 234 158 23 4 13 15 14
340 182 151 157 149 138 148 120 81 158 271 185 174 168 110 150 116 149 166 159 150 115 156 68 173 52 134 86 42 82 81 357 346 4 220 61 99 243 294 7 32 63 19 12 11
2 297 80 141 149 137 115 127 180 202 190 129 117 121 171 147 137 135 126 182 254 91 122 151 224 170 190 172 172 183 156 158 196 195 248 85 227 245 114 105 87 51 356 3 25
349 347 262 115 176 164 117 185 211 190 168 138 96 120 172 198 136 136 189 192 188 182 148 147 245 71 125 141 141 189 179 156 103 28 69 217 287 327 89 90 56 33 35 21 16
110 282 141 164 160 129 170 221 239 240 319 151 159 169 170 180 148 171 170 191 207 189 201 198 136 56 160 108 49 158 159 75 12 160 258 274 232 216 106 111 61 42 22 5 3
6 92 352 135 160 131 186 186 207 261 294 214 178 150 166 171 155 190 198 218 224 191 145 143 114 124 114 205 164 133 167 72 129 156 176 181 252 194 149 141 106 78 21 349 354
70 156 342 176 177 157 166 169 169 232 17 355 86 98 151 164 143 183 194 125 351 180 174 191 132 160 198 264 251 189 179 154 151 218 240 149 261 141 147 148 128 103 360 342 348
98 256 18 352 187 173 175 143 197 160 151 312 120 82 66 137 131 132 129 94 29 141 160 180 185 93 82 13 344 204 164 139 114 80 192 147 245 198 158 150 58 33 6 15 35
109 181 337 23 2 155 160 159 157 133 151 164 86 82 83 83 16 156 135 99 28 64 357 80 92 173 207 179 139 170 170 173 148 160 166 220 135 217 279 336 30 40 46 42 17
46 256 288 211 240 167 167 177 171 161 235 165 192 161 130 127 180 174 108 27 25 6 18 71 141 95 65 42 48 157 162 178 187 183 186 151 202 209 293 325 55 75 60 51 34
156 152 9 311 311 167 190 199 184 169 165 192 195 191 183 171 210 188 133 160 195 58 120 63 117 114 141 350 348 294 243 198 198 206 265 270 273 198 97 106 50 40 46 32 8
167 107 81 321 196 185 212 191 193 149 232 194 165 140 168 179 133 93 107 145 162 147 149 146 139 125 187 338 84 311 241 186 184 200 165 212 239 138 133 136 149 150 109 57 348
Height
768 769 769 771 772 775 775 778 780 781 784 785 785 785 784 783 784 788 785 783 784 786 788 789 790 791 793 795 798 802 828 836 824 829 817 813 814 812 811 815 813 814 815 812 815
768 767 768 770 770 773 775 779 781 780 782 782 782 781 784 787 785 783 783 782 783 786 788 788 790 791 798 798 803 812 830 825 812 812 814 812 813 815 815 816 816 813 813 812 815
764 765 768 768 770 771 772 777 779 780 780 782 782 782 782 782 784 778 781 781 785 786 788 788 789 791 799 800 804 812 820 815 810 807 810 811 813 812 819 821 814 814 812 814 816
764 765 765 768 770 772 774 774 777 777 778 779 779 778 779 780 791 779 779 782 784 786 787 788 790 797 804 808 803 812 808 810 809 808 808 814 812 813 817 810 805 805 808 813 816
761 762 764 764 766 769 773 776 777 777 777 776 778 777 779 781 779 777 781 782 783 786 784 789 792 797 807 804 805 809 808 809 809 810 810 811 814 816 815 808 807 806 809 813 814
760 760 762 765 766 768 769 773 774 775 775 777 777 777 778 785 779 778 780 779 785 784 784 788 791 791 801 804 808 807 808 810 812 812 813 816 817 813 809 806 809 811 810 812 814
757 759 762 763 766 768 771 773 774 774 773 773 774 775 777 778 778 779 780 779 785 784 786 787 789 790 797 806 805 809 815 812 815 813 816 815 820 820 809 809 809 813 813 813 811
756 757 760 764 764 766 768 769 771 771 771 773 773 775 778 777 777 779 778 781 786 783 785 787 789 793 798 803 814 818 825 830 815 817 817 817 829 812 809 807 809 811 815 813 809
754 756 757 760 762 765 765 768 769 771 771 772 774 775 779 776 778 778 781 782 783 785 786 789 790 801 804 819 831 833 836 831 823 819 819 820 822 811 808 810 811 810 812 810 807
753 754 758 759 762 765 765 768 769 771 773 774 776 780 778 778 777 780 779 781 783 786 789 794 804 814 821 823 840 834 832 829 826 819 819 824 825 818 811 810 811 811 809 807 805
752 753 757 757 760 761 764 767 774 775 772 769 771 772 774 775 779 779 778 782 784 792 802 803 814 820 815 816 816 825 823 824 822 818 822 825 829 820 813 812 812 807 806 803 799
751 753 754 757 759 763 764 764 764 764 774 769 769 772 774 774 781 781 781 785 788 804 802 810 817 807 810 815 813 816 822 825 825 820 822 826 825 820 815 806 802 801 798 799 796
749 752 755 757 760 763 762 763 762 764 770 772 769 772 774 776 778 783 780 784 795 803 803 810 803 804 808 817 819 821 828 828 827 827 827 833 830 824 807 805 796 796 797 796 794
750 752 754 756 764 759 759 761 760 763 781 776 773 774 773 774 780 782 780 783 792 801 807 803 800 807 809 815 817 825 819 822 825 834 843 839 852 831 815 810 802 799 798 795 793
748 750 751 753 754 756 759 762 763 766 800 769 774 774 773 777 778 785 782 782 795 798 799 805 806 809 811 811 812 819 817 822 827 841 841 844 854 832 823 812 801 804 803 800 795
748 747 749 753 754 755 757 759 763 786 794 774 772 774 775 778 781 785 783 781 786 793 798 802 803 803 807 814 810 818 824 837 847 849 857 847 846 840 823 808 806 806 805 802 797
747 746 749 751 753 754 756 759 782 808 765 773 772 774 773 781 783 784 788 789 794 807 809 806 805 806 806 816 814 818 830 853 858 869 859 851 852 834 814 810 807 809 806 804 802
747 747 746 750 750 752 753 763 778 769 764 762 766 773 776 776 781 784 788 792 788 793 812 815 819 809 804 807 815 823 825 849 859 869 852 849 845 822 810 811 812 810 809 808 805
748 749 752 746 751 752 756 766 758 758 752 759 766 774 777 773 778 782 788 789 784 790 794 812 807 803 803 802 805 820 829 826 852 916 878 845 831 808 814 820 817 814 812 812 809
750 752 752 748 749 752 755 763 762 755 750 749 757 762 773 774 775 780 788 777 779 780 777 792 804 808 804 802 807 808 814 833 854 862 869 843 833 821 825 824 820 818 819 814 810
751 752 750 749 749 753 759 763 759 753 753 752 752 759 764 769 773 778 775 774 775 778 779 788 792 810 807 809 811 815 817 824 828 841 848 864 833 815 819 820 821 817 815 813 810
754 755 752 752 751 749 757 752 753 751 750 751 753 754 759 765 769 773 775 773 779 777 782 783 794 816 808 803 804 801 807 813 826 838 853 843 830 812 814 816 817 814 812 812 811
757 758 753 751 746 749 750 748 749 751 756 757 755 755 758 761 768 768 771 776 777 774 773 778 794 822 806 807 805 804 807 808 817 834 844 841 829 812 817 816 813 814 815 815 814
758 758 756 753 751 748 747 748 753 752 755 758 757 758 763 764 765 770 773 776 777 780 779 774 791 789 789 795 800 808 808 808 806 830 822 816 808 817 814 810 811 817 818 817 815
759 758 757 763 753 750 745 747 751 756 758 758 764 762 766 773 777 773 774 775 778 782 781 782 797 800 804 803 798 800 804 807 807 807 808 810 815 809 809 808 813 817 816 815 815
756 761 760 759 756 750 751 750 746 749 752 756 757 759 764 774 773 773 771 778 781 787 786 792 802 807 810 815 810 809 808 810 812 810 811 811 807 801 805 812 816 816 815 817 818
756 757 760 760 759 754 748 749 749 746 747 744 748 754 760 762 765 768 768 770 772 779 789 793 804 811 815 824 820 823 803 811 813 809 803 808 796 805 815 814 815 818 818 819 820